Monroe, MI

4:16 PM EDT on June 27, 2017 (GMT -0400)
Custer

Weather History for KTTF - October, 2013

Change the Weather History Date:

Sunday, October 20, 2013

  Actual Average Record
Temperature  
Mean Temperature 52 °F -  
Max Temperature 62 °F 57 °F 82 °F (1953)
Min Temperature 41 °F 40 °F 25 °F (1952)
Degree Days  
Heating Degree Days 14    
Growing Degree Days 2 (Base 50)    
Moisture  
Dew Point 41 °F    
Average Humidity 67    
Maximum Humidity 93    
Minimum Humidity 39    
Precipitation  
Precipitation 0.00 in - - ()
Sea Level Pressure  
Sea Level Pressure 29.87 in    
Wind  
Wind Speed 8 mph (SW)    
Max Wind Speed 21 mph    
Max Gust Speed 25 mph    
Visibility 10 miles    
Events Rain    
Averages and records for this station are not official NWS values.
T = Trace of Precipitation, MM = Missing Value Source: NWS Daily Summary

Daily Weather History Graph

Daily Weather History Graph

Search for Another Location

Airport or City:

Trip Planner

Search our weather history database for the weather conditions in past years. The results will help you decide how hot, cold, wet, or windy it might be!

Date:

Astronomy

Oct. 20, 2013 Rise Set
Actual Time 7:52 AM EDT 6:44 PM EDT
Civil Twilight 7:23 AM EDT 7:12 PM EDT
Nautical Twilight 6:51 AM EDT 7:44 PM EDT
Astronomical Twilight 6:19 AM EDT 8:17 PM EDT
Moon 7:50 PM EDT (10/20) 9:30 AM EDT (10/20)
Length of Visible Light 11h 48m
Length of Day
10h 51m
Full, 97% of the Moon is Illuminated
Oct 20
Full
Oct 26
Last Quarter
Nov 3
New
Nov 10
First Quarter
Nov 17
Full

Hourly Weather History & Observations

Time (EDT) Temp. Windchill Dew Point Humidity Pressure Visibility Wind Dir Wind Speed Gust Speed Precip Events Conditions
12:12 AM 42.8 °F 38.6 °F 37.4 °F 81% 29.85 in 10.0 mi SW 6.9 mph - N/A   Mostly Cloudy
12:32 AM 44.6 °F 41.4 °F 39.2 °F 81% 29.85 in 10.0 mi SW 5.8 mph - N/A   Overcast
12:52 AM 44.6 °F 41.4 °F 39.2 °F 81% 29.86 in 10.0 mi West 5.8 mph - N/A   Overcast
1:12 AM 44.6 °F 40.7 °F 39.2 °F 81% 29.86 in 10.0 mi West 6.9 mph - N/A   Overcast
1:32 AM 44.6 °F - 39.2 °F 81% 29.84 in 10.0 mi Calm Calm - N/A Rain Light Rain
1:52 AM 44.6 °F 40.7 °F 39.2 °F 81% 29.85 in 10.0 mi SW 6.9 mph - N/A   Mostly Cloudy
2:12 AM 42.8 °F 41.1 °F 39.2 °F 87% 29.85 in 10.0 mi WSW 3.5 mph - N/A   Scattered Clouds
2:32 AM 41.0 °F 38.0 °F 39.2 °F 93% 29.86 in 10.0 mi WSW 4.6 mph - N/A   Scattered Clouds
2:52 AM 42.8 °F 39.3 °F 39.2 °F 87% 29.86 in 10.0 mi WSW 5.8 mph - N/A   Mostly Cloudy
3:13 AM 44.6 °F 40.7 °F 39.2 °F 81% 29.85 in 10.0 mi SW 6.9 mph - N/A   Overcast
3:33 AM 44.6 °F 42.2 °F 39.2 °F 81% 29.85 in 10.0 mi SSW 4.6 mph - N/A   Overcast
3:53 AM 42.8 °F 39.3 °F 37.4 °F 81% 29.85 in 10.0 mi SSW 5.8 mph - N/A   Scattered Clouds
4:13 AM 44.6 °F 40.7 °F 39.2 °F 81% 29.84 in 10.0 mi SSW 6.9 mph - N/A   Scattered Clouds
4:33 AM 44.6 °F 40.7 °F 37.4 °F 76% 29.84 in 10.0 mi SW 6.9 mph - N/A   Overcast
4:53 AM 44.6 °F 39.7 °F 37.4 °F 76% 29.84 in 10.0 mi SW 9.2 mph - N/A   Overcast
5:13 AM 42.8 °F 38.6 °F 37.4 °F 81% 29.85 in 10.0 mi WSW 6.9 mph - N/A   Mostly Cloudy
5:34 AM 42.8 °F 39.3 °F 37.4 °F 81% 29.84 in 10.0 mi WSW 5.8 mph - N/A   Mostly Cloudy
5:54 AM 44.6 °F 41.4 °F 39.2 °F 81% 29.84 in 10.0 mi SW 5.8 mph - N/A   Overcast
6:14 AM 44.6 °F 40.7 °F 39.2 °F 81% 29.84 in 10.0 mi WSW 6.9 mph - N/A   Overcast
6:34 AM 44.6 °F 39.7 °F 39.2 °F 81% 29.85 in 10.0 mi SW 9.2 mph - N/A   Overcast
6:54 AM 44.6 °F 39.2 °F 39.2 °F 81% 29.85 in 10.0 mi SW 10.4 mph 16.1 mph N/A   Mostly Cloudy
7:14 AM 44.6 °F 40.7 °F 39.2 °F 81% 29.86 in 10.0 mi SW 6.9 mph - N/A   Clear
7:34 AM 44.6 °F 40.7 °F 39.2 °F 81% 29.86 in 10.0 mi SW 6.9 mph - N/A   Mostly Cloudy
7:54 AM 44.6 °F 40.7 °F 39.2 °F 81% 29.86 in 10.0 mi SW 6.9 mph - N/A   Overcast
8:14 AM 44.6 °F 40.7 °F 39.2 °F 81% 29.87 in 10.0 mi SSW 6.9 mph - N/A   Overcast
8:34 AM 44.6 °F 40.7 °F 39.2 °F 81% 29.88 in 10.0 mi SSW 6.9 mph - N/A   Overcast
8:54 AM 46.4 °F 41.5 °F 39.2 °F 76% 29.88 in 10.0 mi SW 10.4 mph - N/A   Mostly Cloudy
9:14 AM 46.4 °F 41.5 °F 39.2 °F 76% 29.89 in 10.0 mi SW 10.4 mph 16.1 mph N/A   Scattered Clouds
9:34 AM 48.2 °F - 39.2 °F 71% 29.90 in 10.0 mi SW 10.4 mph - N/A   Clear
9:55 AM 48.2 °F - 39.2 °F 71% 29.91 in 10.0 mi WSW 15.0 mph - N/A   Clear
10:15 AM 50.0 °F - 41.0 °F 71% 29.90 in 10.0 mi WSW 11.5 mph 18.4 mph N/A   Clear
10:35 AM 51.8 °F - 41.0 °F 67% 29.90 in 10.0 mi WSW 10.4 mph - N/A   Clear
10:55 AM 51.8 °F - 42.8 °F 71% 29.90 in 10.0 mi WSW 12.7 mph 16.1 mph N/A   Clear
11:15 AM 53.6 °F - 42.8 °F 67% 29.90 in 10.0 mi WSW 10.4 mph - N/A   Clear
11:35 AM 53.6 °F - 42.8 °F 67% 29.90 in 10.0 mi WSW 9.2 mph - N/A   Clear
11:55 AM 55.4 °F - 42.8 °F 63% 29.91 in 10.0 mi WSW 15.0 mph - N/A   Clear
12:15 PM 55.4 °F - 42.8 °F 63% 29.91 in 10.0 mi SW 11.5 mph - N/A   Clear
12:35 PM 57.2 °F - 42.8 °F 59% 29.91 in 10.0 mi SW 12.7 mph - N/A   Clear
12:56 PM 57.2 °F - 42.8 °F 59% 29.91 in 10.0 mi SW 13.8 mph 18.4 mph N/A   Clear
1:16 PM 59.0 °F - 42.8 °F 55% 29.90 in 10.0 mi West 11.5 mph 18.4 mph N/A   Clear
1:36 PM 59.0 °F - 41.0 °F 51% 29.90 in 10.0 mi WSW 11.5 mph 19.6 mph N/A   Clear
1:56 PM 59.0 °F - 41.0 °F 51% 29.89 in 10.0 mi West 12.7 mph 19.6 mph N/A   Scattered Clouds
2:16 PM 59.0 °F - 39.2 °F 48% 29.89 in 10.0 mi West 20.7 mph 25.3 mph N/A   Clear
2:36 PM 60.8 °F - 39.2 °F 45% 29.89 in 10.0 mi West 17.3 mph 20.7 mph N/A   Clear
2:56 PM 62.6 °F - 39.2 °F 42% 29.88 in 10.0 mi West 18.4 mph 24.2 mph N/A   Scattered Clouds
3:16 PM 62.6 °F - 39.2 °F 42% 29.88 in 10.0 mi West 12.7 mph 19.6 mph N/A   Scattered Clouds
3:36 PM 62.6 °F - 39.2 °F 42% 29.88 in 10.0 mi WSW 12.7 mph 20.7 mph N/A   Clear
3:56 PM 62.6 °F - 39.2 °F 42% 29.88 in 10.0 mi WSW 12.7 mph - N/A   Clear
4:16 PM 62.6 °F - 39.2 °F 42% 29.88 in 10.0 mi WSW 15.0 mph 19.6 mph N/A   Clear
4:36 PM 60.8 °F - 39.2 °F 45% 29.88 in 10.0 mi SW 10.4 mph - N/A   Scattered Clouds
4:56 PM 62.6 °F - 39.2 °F 42% 29.88 in 10.0 mi SW 8.1 mph - N/A   Overcast
5:12 PM 62.6 °F - 37.4 °F 39% 29.88 in 10.0 mi SSW 10.4 mph 17.3 mph N/A   Overcast
5:32 PM 62.6 °F - 39.2 °F 42% 29.88 in 10.0 mi SSW 6.9 mph - N/A   Overcast
5:52 PM 60.8 °F - 39.2 °F 45% 29.88 in 10.0 mi SSW 6.9 mph - N/A   Overcast
6:12 PM 60.8 °F - 41.0 °F 48% 29.88 in 10.0 mi SSW 5.8 mph - N/A   Overcast
6:32 PM 59.0 °F - 41.0 °F 51% 29.88 in 10.0 mi SSW 4.6 mph - N/A   Overcast
6:52 PM 57.2 °F - 42.8 °F 59% 29.87 in 10.0 mi South 4.6 mph - N/A   Overcast
7:12 PM 57.2 °F - 42.8 °F 59% 29.88 in 10.0 mi South 4.6 mph - N/A   Overcast
7:32 PM 57.2 °F - 42.8 °F 59% 29.87 in 10.0 mi South 4.6 mph - N/A   Overcast
7:53 PM 57.2 °F - 44.6 °F 63% 29.87 in 10.0 mi South 6.9 mph - N/A   Overcast
8:13 PM 55.4 °F - 44.6 °F 67% 29.87 in 10.0 mi South 4.6 mph - N/A   Scattered Clouds
8:33 PM 55.4 °F - 44.6 °F 67% 29.87 in 10.0 mi South 5.8 mph - N/A   Scattered Clouds
8:53 PM 55.4 °F - 46.4 °F 72% 29.87 in 10.0 mi SSE 6.9 mph - N/A   Scattered Clouds
9:13 PM 55.4 °F - 46.4 °F 72% 29.87 in 10.0 mi South 6.9 mph - N/A   Scattered Clouds
9:33 PM 55.4 °F - 44.6 °F 67% 29.87 in 10.0 mi South 11.5 mph - N/A   Mostly Cloudy
9:53 PM 57.2 °F - 46.4 °F 67% 29.86 in 10.0 mi South 11.5 mph - N/A   Mostly Cloudy
10:13 PM 57.2 °F - 44.6 °F 63% 29.87 in 10.0 mi SSW 12.7 mph 17.3 mph N/A   Mostly Cloudy
10:33 PM 57.2 °F - 44.6 °F 63% 29.88 in 10.0 mi SSW 13.8 mph 20.7 mph N/A   Scattered Clouds
10:53 PM 57.2 °F - 44.6 °F 63% 29.87 in 10.0 mi SSW 12.7 mph 18.4 mph N/A   Clear
11:13 PM 57.2 °F - 44.6 °F 63% 29.87 in 10.0 mi SSW 15.0 mph 25.3 mph N/A   Scattered Clouds
11:34 PM 57.2 °F - 44.6 °F 63% 29.87 in 10.0 mi SSW 17.3 mph 24.2 mph N/A   Scattered Clouds
11:54 PM 57.2 °F - 44.6 °F 63% 29.86 in 10.0 mi SSW 17.3 mph 23.0 mph N/A   Clear